TIANMU-1 05

Last updated on Tue Jan 14 2025 00:02:18 GMT+0000 (Coordinated Universal Time)

1 55975U 23039C 25013.52285543 .00012538 00000+0 43377-3 0 9998 2 55975 97.4801 169.9962 0004180 164.7964 195.3403 15.30019645100914
UTC large
Height (km)
Speed (km/s)
/
Latitude / Longitude
Inclination (degrees)
Orbital Period (minutes)
Azimuth
Elevation
Range (km)
Doppler Factor

Next 0 passes for location: London (51.5072 / 0.1276)

Sorry there are no passes over London.